アトラス彗星

C/2024 C4 ( ATLAS )

English version
Home page
Updated on September 4, 2024

---------------------------------------------------------------------

・ プロフィール

発見日 2024年2月14日
発見光度 17.4等
発見者 Asteroid Terrestrial-Impact Last Alert System (ATLAS) search program

・ 写真集

・ 軌道要素

Epoch 2024 Oct. 17.0 TT = JDT 2460600.5
T 2024 Jan. 30.19358 TT                                 Rudenko
q   1.4710885            (2000.0)            P               Q
z  +0.0119218      Peri.  321.51572     -0.66901390     -0.37704168
 +/-0.0000076      Node   220.68342     -0.14445877     -0.77937988
e   0.9824620      Incl.   79.28615     -0.72907617     +0.50040641
>From 556 observations 2024 Feb. 14-Aug. 14, mean residual 0".7.

・ 星図

・ 光度変化

        m1 = 13.5 + 5 logΔ + 10.0 log r

---------------------------------------------------------------------

軌道要素はM.P.E.C. 2024-Q20に掲載されたものです。
星図はステラナビゲータ Ver.11 (アストロアーツ) で作成したものです。
光度グラフはComet for Windowsで作成したものです。

---------------------------------------------------------------------

Copyright(C) Seiichi Yoshida (comet@aerith.net). All rights reserved.